Home   Weather   Los Angeles   Past weeks
Flag for USA

Past Weather in Los Angeles, California, USA — December 2018

Now
72 °F

Sunny.


Feels Like: 75 °F
Forecast: 81 / 62 °F
Wind: 3 mph from North

Location: Los Angeles / USC Campus Downtown

Current Time: Sep 17, 2019 at 10:08:55 am

Latest Report: Sep 17, 2019 at 8:52 am


Visibility: 9 mi

Pressure: 29.96 "Hg

Humidity: 68%

Dew Point: 61 °F

Location of Los AngelesLocation

December 2018 Weather in Los Angeles — Graph

°F

High & Low Weather Summary for December 2018

 TemperatureHumidityPressure
High77 °F (Dec 13, 2:47 pm)97% (Dec 6, 9:05 am)30.33 "Hg (Dec 6, 9:05 am)
Low40 °F (Dec 29, 3:47 am)14% (Dec 28, 12:47 pm)29.72 "Hg (Dec 25, 12:47 pm)
Average58 °F64%30.05 "Hg
* Reported Dec 1 12:47 am — Dec 31 11:47 pm, Los Angeles. Weather by CustomWeather, © 2019

Note: Actual official high and low records may vary slightly from our data, if they occured in-between our weather recording intervals... More about our weather records

Advertising

Los Angeles Weather History for December 1, 2018

Scroll right to see more
 ConditionsComfort  
Time TempWeatherWind HumidityBarometerVisibility
12:47 am
Sat, Dec 1
54 °FClear.No wind62%29.97 "Hg10 mi
2:47 am52 °FClear.No wind69%29.97 "Hg10 mi
3:47 am50 °FClear.No wind74%29.97 "Hg10 mi
4:47 am50 °FClear.No wind74%29.97 "Hg10 mi
5:47 am49 °FClear.No wind77%29.99 "Hg10 mi
6:47 am49 °FSunny.No wind77%30.00 "Hg10 mi
7:47 am52 °FSunny.No wind72%29.99 "Hg10 mi
8:47 am58 °FSunny.No wind58%30.00 "Hg10 mi
9:47 am61 °FSunny.No wind56%30.00 "Hg10 mi
10:47 am63 °FSunny.No wind47%29.98 "Hg10 mi
11:47 am65 °FSunny.7 mph37%29.95 "Hg10 mi
12:47 pm64 °FSunny.5 mph45%29.93 "Hg10 mi
1:47 pm63 °FSunny.7 mph47%29.92 "Hg10 mi
2:47 pm64 °FSunny.5 mph45%29.91 "Hg10 mi
3:47 pm62 °FSunny.5 mph50%29.90 "Hg10 mi
4:47 pm60 °FClear.No wind53%29.89 "Hg10 mi
5:47 pm59 °FClear.No wind54%29.88 "Hg10 mi
6:47 pm58 °FClear.No wind58%29.89 "Hg10 mi
7:47 pm56 °FClear.No wind65%29.90 "Hg10 mi
8:47 pm57 °FClear.No wind64%29.91 "Hg10 mi
9:47 pm56 °FClear.No wind70%29.91 "Hg10 mi
10:47 pm55 °FClear.No wind72%29.93 "Hg10 mi
11:47 pm54 °FPassing clouds.No wind64%29.93 "Hg10 mi
Weather by CustomWeather, © 2019

See weather overview